Regional Weather Roundup
Issued by NWS

Home | Current Version | Previous Version | Text Only | Print | Product List | Glossary Off
Versions: 1 2 3 4 5 6 7 8 9 10 11 12 13 14 15 16 17 18 19 20 21 22 23 24 25 26 27 28 29 30 31 32 33 34 35 36 37 38 39 40 41 42 43 44 45 46 47 48 49 50

000
ASUS43 KLSX 210507
RWRMO

WEATHER SUMMARY FOR MISSOURI
NATIONAL WEATHER SERVICE SPRINGFIELD MO
1200 AM CDT TUE OCT 21 2014

NOTE: "FAIR" INDICATES FEW OR NO CLOUDS BELOW 12,000 FEET WITH NO
       SIGNIFICANT WEATHER AND/OR OBSTRUCTIONS TO VISIBILITY.
       CURRENT SKY AND/OR WEATHER CONDITIONS ARE NOT AVAILABLE FOR
       CHILLICOTHE AND FARMINGTON.

MOZ001>031-035>038-043-044-053-054-210600-
...NORTHERN AND WESTERN MISSOURI...

CITY           SKY/WX    TMP DP  RH WIND       PRES   REMARKS
KANSAS CTY INT CLEAR     60  40  47 CALM      30.07S
KANSAS C DTWN  CLEAR     52  48  86 CALM      30.07S
LEE`S SUMMIT   CLEAR     52  45  77 SW3       30.08S
ST JOSEPH      CLEAR     44  42  93 CALM      30.07F
CHILLICOTHE      N/A     46  44  93 CALM      30.07S
KIRKSVILLE     CLEAR     45  44  97 W5        30.05F

$$
MOZ066>068-077>081-088>096-101>105-210600-
...SOUTHWEST MISSOURI...

CITY           SKY/WX    TMP DP  RH WIND       PRES   REMARKS
SPRINGFIELD    CLEAR     50  49  96 CALM      30.07S FOG
JOPLIN         CLEAR     53  53 100 S3        30.08F

$$
MOZ032>034-039>042-045>050-055>058-069>072-210600-
...CENTRAL MISSOURI...

CITY           SKY/WX    TMP DP  RH WIND       PRES   REMARKS
COLUMBIA       CLEAR     56  43  61 N3        30.05F
JEFFERSON CITY CLEAR     48  44  86 CALM      30.06S
ROLLA          CLEAR     48  41  76 CALM      30.04F
SEDALIA        CLEAR     53  45  74 CALM      30.08S
WHITEMAN AFB   CLEAR     47  45  90 CALM      30.06F
OSAGE BEACH    CLEAR     46  45  93 CALM      30.07S

$$
MOZ051-052-059>065-210600-
...EAST CENTRAL MISSOURI...

CITY           SKY/WX    TMP DP  RH WIND       PRES   REMARKS
ST LOUIS INTL  CLEAR     53  46  77 CALM      30.02F
SPIRIT OF STL  CLEAR     46  44  93 CALM      30.02F
ST CHARLES     CLEAR     49  45  86 SW3       30.02S

$$
MOZ072>076-082>087-097>100-106>115-210600-
...SOUTH CENTRAL AND SOUTHEAST MISSOURI...

CITY           SKY/WX    TMP DP  RH WIND       PRES   REMARKS
CAPE GIRARDEAU CLEAR     47  46  97 CALM      30.02F FOG
FARMINGTON     CLEAR     48  45  87 CALM      30.06S
WEST PLAINS    CLEAR     52  48  86 CALM      30.07S

$$


USA.gov is the U.S. government's official web portal to all federal, state and local government web resources and services.